Yakima, WA

1:37 AM PDT on June 18, 2018 (GMT -0700)
Yakima Air Term-McAllister

Weather History for KYKM - November, 2017

Change the Weather History Date:

Monday, November 13, 2017

  Actual Average Record
Temperature  
Mean Temperature 49 °F 38 °F  
Max Temperature 54 °F 49 °F 72 °F (1999)
Min Temperature 43 °F 27 °F 5 °F (1959)
Degree Days  
Heating Degree Days 16 27  
Month to date heating degree days 312 318  
Since 1 July heating degree days 873 1022  
Cooling Degree Days 0 0  
Month to date cooling degree days 0 0  
Year to date cooling degree days 1054 472  
Moisture  
Dew Point 39 °F    
Average Humidity 71    
Maximum Humidity 92    
Minimum Humidity 50    
Precipitation  
Precipitation 0.11 in 0.03 in 0.71 in (1966)
Month to date precipitation 0.81 0.40  
Year to date precipitation 9.55 6.07  
Snow  
Snow 0.00 in 0.10 in 0.10 in (1955)
Month to date snowfall 0.4 0.6  
Year to date snowfall 29.5 9.3  
Since 1 July snowfall 0.4 0.7  
Snow Depth 0.00 in    
Sea Level Pressure  
Sea Level Pressure 29.82 in    
Wind  
Wind Speed 14 mph (South)    
Max Wind Speed 31 mph    
Max Gust Speed 42 mph    
Visibility 7 miles    
Events Rain    
T = Trace of Precipitation, MM = Missing Value Source: NWS Daily Summary

Daily Weather History Graph

Daily Weather History Graph

Search for Another Location

Airport or City:

Astronomy

Nov. 13, 2017 Rise Set
Actual Time 7:01 AM PST 4:30 PM PST
Civil Twilight 6:29 AM PST 5:03 PM PST
Nautical Twilight 5:52 AM PST 5:39 PM PST
Astronomical Twilight 5:17 AM PST 6:15 PM PST
Moon 1:45 AM PST (11/13) 2:45 PM PST (11/13)
Length of Visible Light 10h 34m
Length of Day
9h 28m
Waning Crescent, 20% of the Moon is Illuminated
Nov 13
Waning Crescent
Nov 18
New
Nov 26
First Quarter
Dec 3
Full
Dec 9
Last Quarter

Hourly Weather History & Observations

Time (PST) Temp. Windchill Dew Point Humidity Pressure Visibility Wind Dir Wind Speed Gust Speed Precip Events Conditions
12:09 AM 45.0 °F - 43.0 °F 93% 29.87 in 5.0 mi Calm Calm - N/A   Overcast
12:53 AM 45.0 °F - 43.0 °F 93% 29.85 in 4.0 mi Calm Calm - 0.00 in   Overcast
1:01 AM 45.0 °F - 43.0 °F 93% 29.84 in 4.0 mi Calm Calm - N/A   Overcast
1:09 AM 45.0 °F - 43.0 °F 93% 29.83 in 3.0 mi Calm Calm - N/A   Overcast
1:53 AM 45.0 °F - 43.0 °F 93% 29.83 in 4.0 mi Calm Calm - N/A   Overcast
2:07 AM 45.0 °F - 42.1 °F 90% 29.81 in 4.0 mi Calm Calm - N/A   Overcast
2:49 AM 44.6 °F 41.4 °F 42.8 °F 93% 29.78 in 2.0 mi ESE 5.8 mph - 0.00 in   Overcast
2:53 AM 44.1 °F 40.1 °F 42.1 °F 93% 29.78 in 1.5 mi ESE 6.9 mph - 0.00 in   Overcast
3:09 AM 44.1 °F 42.5 °F 42.1 °F 93% 29.77 in 2.5 mi SE 3.5 mph - N/A   Overcast
3:18 AM 44.6 °F 43.1 °F 42.8 °F 93% 29.78 in 3.0 mi SSE 3.5 mph - N/A   Overcast
3:33 AM 44.1 °F 42.5 °F 42.1 °F 93% 29.77 in 4.0 mi South 3.5 mph - 0.00 in Rain Light Rain
3:53 AM 44.1 °F - 41.0 °F 89% 29.79 in 4.0 mi Calm Calm - 0.00 in   Overcast
4:18 AM 44.1 °F 42.5 °F 41.0 °F 89% 29.79 in 4.0 mi South 3.5 mph - 0.00 in Rain Light Rain
4:31 AM 44.1 °F 42.5 °F 42.1 °F 93% 29.78 in 4.0 mi ESE 3.5 mph - 0.01 in Rain Light Rain
4:53 AM 44.1 °F 40.8 °F 42.1 °F 93% 29.79 in 6.0 mi SSE 5.8 mph - 0.10 in   Overcast
5:38 AM 44.1 °F 40.1 °F 41.0 °F 89% 29.77 in 5.0 mi Variable 6.9 mph - N/A   Overcast
5:53 AM 44.1 °F 39.5 °F 41.0 °F 89% 29.80 in 7.0 mi East 8.1 mph - 0.01 in   Overcast
6:53 AM 45.0 °F - 39.9 °F 82% 29.80 in 9.0 mi Calm Calm - N/A   Overcast
7:53 AM 46.0 °F - 39.9 °F 79% 29.80 in 9.0 mi Calm Calm - 0.00 in   Overcast
8:53 AM 48.0 °F - 39.0 °F 71% 29.81 in 10.0 mi SSW 11.5 mph - N/A   Scattered Clouds
9:53 AM 48.9 °F - 39.0 °F 69% 29.83 in 10.0 mi SSW 12.7 mph - N/A   Mostly Cloudy
10:53 AM 52.0 °F - 39.0 °F 61% 29.84 in 10.0 mi SSW 18.4 mph 24.2 mph 0.00 in   Scattered Clouds
11:53 AM 54.0 °F - 37.9 °F 55% 29.83 in 10.0 mi South 19.6 mph 28.8 mph N/A   Scattered Clouds
12:53 PM 52.0 °F - 37.9 °F 59% 29.84 in 10.0 mi SSW 18.4 mph 29.9 mph N/A   Clear
1:53 PM 53.1 °F - 37.0 °F 55% 29.83 in 10.0 mi SSW 26.5 mph 34.5 mph N/A   Clear
2:53 PM 52.0 °F - 35.1 °F 53% 29.84 in 10.0 mi SSW 17.3 mph 28.8 mph N/A   Clear
3:53 PM 50.0 °F - 35.1 °F 57% 29.83 in 10.0 mi South 17.3 mph 25.3 mph N/A   Clear
4:53 PM 50.0 °F - 35.1 °F 57% 29.82 in 10.0 mi South 25.3 mph 34.5 mph N/A   Clear
5:53 PM 51.1 °F - 33.1 °F 50% 29.81 in 10.0 mi South 24.2 mph 34.5 mph N/A   Mostly Cloudy
6:53 PM 51.1 °F - 33.1 °F 50% 29.83 in 10.0 mi South 25.3 mph 32.2 mph N/A   Scattered Clouds
7:53 PM 48.9 °F - 34.0 °F 56% 29.86 in 10.0 mi South 20.7 mph 27.6 mph N/A   Scattered Clouds
8:53 PM 50.0 °F - 34.0 °F 54% 29.87 in 10.0 mi South 15.0 mph 25.3 mph N/A   Scattered Clouds
9:53 PM 50.0 °F - 34.0 °F 54% 29.88 in 10.0 mi South 16.1 mph - N/A Rain Light Rain
10:53 PM 48.9 °F - 34.0 °F 56% 29.91 in 10.0 mi South 17.3 mph - N/A Rain Light Rain
11:53 PM 48.9 °F - 35.1 °F 59% 29.93 in 10.0 mi South 18.4 mph 26.5 mph 0.13 in Rain Light Rain